• In Hungary
  • List of Countries
  • For 7 days
  • Water Temperature
  • Satellite Maps
  • Weather Map
  • News
  • Weather Widgets
  • user-avatar
    Login

    Hourly Weather Abramovo

    Today, 22 October, Monday

    Time Temperature Precipitation Wind Pressure Humidity
    00:00 +6°C° 0 mm 0 mps 756 mmHg 77%
    01:00 +6°C° 0 mm 0 mps 756 mmHg 78%
    02:00 +7°C° 0 mm 1 mps 756 mmHg 79%
    03:00 +7°C° 0 mm 1 mps 755 mmHg 81%
    04:00 +6°C° 0 mm 1 mps 755 mmHg 83%
    05:00 +6°C° 0 mm 1 mps 755 mmHg 85%
    06:00 +6°C° 0 mm 1 mps 755 mmHg 85%
    07:00 +6°C° 0 mm 1 mps 755 mmHg 85%
    08:00 +6°C° 0 mm 1 mps 755 mmHg 86%
    09:00 +6°C° 0 mm 2 mps 754 mmHg 78%
    10:00 +8°C° 0 mm 2 mps 754 mmHg 71%
    11:00 +10°C° 0 mm 3 mps 754 mmHg 63%
    12:00 +10°C° 0 mm 3 mps 753 mmHg 60%
    13:00 +11°C° 0 mm 4 mps 753 mmHg 57%
    14:00 +12°C° 0 mm 4 mps 752 mmHg 54%
    15:00 +11°C° 0 mm 4 mps 752 mmHg 57%
    16:00 +10°C° 0 mm 3 mps 751 mmHg 60%
    17:00 +9°C° 0 mm 3 mps 751 mmHg 63%
    18:00 +9°C° 0.1 mm 3 mps 750 mmHg 66%
    19:00 +9°C° 0.1 mm 3 mps 750 mmHg 69%
    20:00 +7°C° 0.1 mm 4 mps 750 mmHg 72%
    21:00 +7°C° 0.5 mm 4 mps 750 mmHg 76%
    22:00 +7°C° 0.5 mm 4 mps 750 mmHg 80%
    23:00 +7°C° 0.5 mm 4 mps 750 mmHg 84%

    Tomorrow, 23 October, Tuesday

    Time Temperature Precipitation Wind Pressure Humidity
    00:00 +7°C° 0.1 mm 4 mps 750 mmHg 85%
    01:00 +6°C° 0.1 mm 4 mps 750 mmHg 86%
    02:00 +5°C° 0.1 mm 4 mps 749 mmHg 86%
    03:00 +4°C° 0 mm 3 mps 749 mmHg 87%
    04:00 +4°C° 0 mm 3 mps 749 mmHg 87%
    05:00 +4°C° 0 mm 3 mps 749 mmHg 88%
    06:00 +3°C° 0 mm 3 mps 748 mmHg 88%
    07:00 +3°C° 0 mm 4 mps 748 mmHg 87%
    08:00 +3°C° 0 mm 4 mps 748 mmHg 87%
    09:00 +4°C° 0 mm 4 mps 747 mmHg 82%
    10:00 +5°C° 0 mm 5 mps 747 mmHg 77%
    11:00 +5°C° 0 mm 6 mps 746 mmHg 72%
    12:00 +5°C° 0.1 mm 6 mps 745 mmHg 70%
    13:00 +6°C° 0.1 mm 7 mps 744 mmHg 69%
    14:00 +6°C° 0.1 mm 7 mps 742 mmHg 67%
    15:00 +5°C° 0.4 mm 8 mps 741 mmHg 70%
    16:00 +5°C° 0.4 mm 8 mps 739 mmHg 73%
    17:00 +3°C° 0.4 mm 9 mps 738 mmHg 76%
    18:00 +3°C° 1.5 mm 9 mps 736 mmHg 79%
    19:00 +5°C° 1.5 mm 9 mps 734 mmHg 81%
    20:00 +5°C° 1.5 mm 10 mps 733 mmHg 83%
    21:00 +5°C° 0.8 mm 9 mps 732 mmHg 83%
    22:00 +6°C° 0.8 mm 9 mps 731 mmHg 83%
    23:00 +7°C° 0.8 mm 8 mps 730 mmHg 82%

    Day after tomorrow, 24 October, Wednesday

    Time Temperature Precipitation Wind Pressure Humidity
    00:00 +6°C° 0.1 mm 8 mps 729 mmHg 81%
    01:00 +6°C° 0.1 mm 8 mps 729 mmHg 79%
    02:00 +5°C° 0.1 mm 8 mps 728 mmHg 78%
    03:00 +5°C° 0.1 mm 8 mps 728 mmHg 77%
    04:00 +5°C° 0.1 mm 8 mps 727 mmHg 77%
    05:00 +4°C° 0.1 mm 8 mps 727 mmHg 77%
    06:00 +3°C° 0.2 mm 9 mps 727 mmHg 74%
    07:00 +3°C° 0.2 mm 9 mps 727 mmHg 71%
    08:00 +2°C° 0.2 mm 10 mps 727 mmHg 68%
    09:00 +3°C° 1 mm 10 mps 728 mmHg 69%
    10:00 +3°C° 1 mm 10 mps 728 mmHg 71%
    11:00 +3°C° 1 mm 10 mps 728 mmHg 73%
    12:00 +3°C° 0.2 mm 11 mps 729 mmHg 69%
    13:00 +4°C° 0.2 mm 11 mps 729 mmHg 65%
    14:00 +4°C° 0.2 mm 12 mps 729 mmHg 61%
    15:00 +4°C° 0.3 mm 12 mps 730 mmHg 62%
    16:00 +4°C° 0.3 mm 12 mps 730 mmHg 63%
    17:00 +4°C° 0.3 mm 12 mps 730 mmHg 64%
    18:00 +4°C° 0.6 mm 12 mps 731 mmHg 66%
    19:00 +4°C° 0.6 mm 12 mps 732 mmHg 68%
    20:00 +4°C° 0.6 mm 12 mps 732 mmHg 70%
    21:00 +3°C° 0.1 mm 11 mps 733 mmHg 70%
    22:00 +3°C° 0.1 mm 11 mps 734 mmHg 69%
    23:00 +3°C° 0.1 mm 11 mps 735 mmHg 68%

    25 October, Thursday

    Time Temperature Precipitation Wind Pressure Humidity
    00:00 +3°C° 0.1 mm 10 mps 736 mmHg 69%
    01:00 +3°C° 0.1 mm 10 mps 737 mmHg 69%
    02:00 +3°C° 0.1 mm 9 mps 737 mmHg 70%
    03:00 +2°C° 0 mm 9 mps 738 mmHg 71%
    04:00 +2°C° 0 mm 8 mps 739 mmHg 73%
    05:00 +2°C° 0 mm 8 mps 740 mmHg 75%
    06:00 +3°C° 0 mm 7 mps 740 mmHg 76%
    07:00 +3°C° 0 mm 7 mps 740 mmHg 77%
    08:00 +3°C° 0 mm 7 mps 741 mmHg 78%
    09:00 +4°C° 0 mm 7 mps 741 mmHg 74%
    10:00 +4°C° 0 mm 7 mps 741 mmHg 70%
    11:00 +5°C° 0 mm 7 mps 741 mmHg 66%
    12:00 +6°C° 0 mm 7 mps 741 mmHg 62%
    13:00 +6°C° 0 mm 7 mps 741 mmHg 59%
    14:00 +6°C° 0 mm 7 mps 741 mmHg 55%
    15:00 +6°C° 0.2 mm 7 mps 741 mmHg 62%
    16:00 +5°C° 0.2 mm 6 mps 740 mmHg 68%
    17:00 +5°C° 0.2 mm 6 mps 740 mmHg 75%
    18:00 +5°C° 0.6 mm 6 mps 739 mmHg 79%
    19:00 +6°C° 0.6 mm 7 mps 739 mmHg 83%
    20:00 +6°C° 0.6 mm 7 mps 739 mmHg 86%
    21:00 +8°C° 0.4 mm 7 mps 738 mmHg 86%
    22:00 +8°C° 0.4 mm 7 mps 738 mmHg 86%
    23:00 +8°C° 0.4 mm 7 mps 738 mmHg 85%

    26 October, Friday

    Time Temperature Precipitation Wind Pressure Humidity
    00:00 +8°C° 0.1 mm 7 mps 738 mmHg 85%
    01:00 +8°C° 0.1 mm 7 mps 739 mmHg 84%
    02:00 +6°C° 0.1 mm 7 mps 739 mmHg 84%
    03:00 +7°C° 0 mm 6 mps 739 mmHg 86%
    04:00 +7°C° 0 mm 6 mps 739 mmHg 87%
    05:00 +7°C° 0 mm 6 mps 739 mmHg 89%
    06:00 +7°C° 0 mm 6 mps 740 mmHg 89%
    07:00 +7°C° 0 mm 5 mps 740 mmHg 89%
    08:00 +7°C° 0 mm 5 mps 740 mmHg 89%
    09:00 +8°C° 0 mm 5 mps 741 mmHg 86%
    10:00 +8°C° 0 mm 5 mps 741 mmHg 83%
    11:00 +9°C° 0 mm 5 mps 741 mmHg 81%
    12:00 +9°C° 0.1 mm 5 mps 741 mmHg 81%
    13:00 +9°C° 0.1 mm 5 mps 741 mmHg 81%
    14:00 +9°C° 0.1 mm 5 mps 741 mmHg 81%
    15:00 +10°C° 0 mm 4 mps 741 mmHg 80%
    16:00 +10°C° 0 mm 4 mps 741 mmHg 79%
    17:00 +10°C° 0 mm 3 mps 741 mmHg 79%
    18:00 +10°C° 0 mm 4 mps 741 mmHg 78%
    19:00 +10°C° 0 mm 4 mps 741 mmHg 78%
    20:00 +10°C° 0 mm 4 mps 741 mmHg 78%
    21:00 +10°C° 0 mm 4 mps 741 mmHg 77%
    22:00 +10°C° 0 mm 4 mps 740 mmHg 77%
    23:00 +10°C° 0 mm 4 mps 740 mmHg 76%

    27 October, Saturday

    Time Temperature Precipitation Wind Pressure Humidity
    00:00 +8°C° 0 mm 4 mps 740 mmHg 78%
    01:00 +8°C° 0 mm 4 mps 740 mmHg 80%
    02:00 +8°C° 0 mm 5 mps 739 mmHg 82%
    03:00 +8°C° 0 mm 4 mps 739 mmHg 83%
    04:00 +8°C° 0 mm 4 mps 739 mmHg 83%
    05:00 +8°C° 0 mm 4 mps 739 mmHg 84%
    06:00 +7°C° 0 mm 4 mps 739 mmHg 85%
    07:00 +7°C° 0 mm 4 mps 739 mmHg 86%
    08:00 +7°C° 0 mm 4 mps 739 mmHg 87%
    09:00 +8°C° 0 mm 4 mps 739 mmHg 83%
    10:00 +10°C° 0 mm 4 mps 739 mmHg 78%
    11:00 +11°C° 0 mm 4 mps 739 mmHg 74%
    12:00 +12°C° 0 mm 4 mps 739 mmHg 71%
    13:00 +13°C° 0 mm 3 mps 738 mmHg 69%
    14:00 +13°C° 0 mm 3 mps 738 mmHg 66%
    15:00 +13°C° 0 mm 3 mps 737 mmHg 70%
    16:00 +13°C° 0 mm 2 mps 737 mmHg 74%
    17:00 +13°C° 0 mm 2 mps 736 mmHg 78%
    18:00 +13°C° 0.6 mm 2 mps 736 mmHg 82%
    19:00 +12°C° 0.6 mm 3 mps 736 mmHg 85%
    20:00 +12°C° 0.6 mm 3 mps 735 mmHg 89%
    21:00 +12°C° 0.6 mm 3 mps 735 mmHg 90%
    22:00 +12°C° 0.6 mm 3 mps 735 mmHg 91%
    23:00 +12°C° 0.6 mm 3 mps 735 mmHg 92%
    Show more